TimePDT,TemperatureF,Dew PointF,Humidity,Sea Level PressureIn,VisibilityMPH,Wind Direction,Wind SpeedMPH,Gust SpeedMPH,PrecipitationIn,Events,Conditions,WindDirDegrees,DateUTC
12:53 AM,55.9,52.0,87,29.88,8.0,NW,6.9,-,N/A,,Overcast,310,2013-05-01 07:53:00
1:53 AM,55.9,52.0,87,29.88,8.0,Calm,Calm,-,N/A,,Overcast,0,2013-05-01 08:53:00
2:34 AM,55.4,50.0,82,29.90,10.0,SW,3.5,-,N/A,,Overcast,220,2013-05-01 09:34:00
2:53 AM,55.9,50.0,80,29.87,10.0,Calm,Calm,-,N/A,,Overcast,0,2013-05-01 09:53:00
3:53 AM,55.9,51.1,84,29.88,9.0,NW,4.6,-,N/A,,Overcast,310,2013-05-01 10:53:00
4:53 AM,55.9,50.0,80,29.89,10.0,NW,6.9,-,N/A,,Overcast,310,2013-05-01 11:53:00
5:53 AM,55.9,50.0,80,29.91,10.0,West,3.5,-,N/A,,Overcast,280,2013-05-01 12:53:00
6:53 AM,55.9,50.0,80,29.93,10.0,West,4.6,-,N/A,,Overcast,280,2013-05-01 13:53:00
7:53 AM,57.0,50.0,77,29.95,10.0,WNW,3.5,-,N/A,,Overcast,300,2013-05-01 14:53:00
8:53 AM,59.0,50.0,72,29.97,10.0,Calm,Calm,-,N/A,,Overcast,0,2013-05-01 15:53:00
9:53 AM,62.1,50.0,65,29.97,10.0,Variable,3.5,-,N/A,,Scattered Clouds,0,2013-05-01 16:53:00
10:53 AM,68.0,48.9,50,29.96,10.0,Variable,3.5,-,N/A,,Clear,0,2013-05-01 17:53:00
11:53 AM,71.1,50.0,47,29.96,10.0,WNW,10.4,-,N/A,,Clear,300,2013-05-01 18:53:00
12:53 PM,73.9,50.0,43,29.95,10.0,WNW,6.9,-,N/A,,Clear,300,2013-05-01 19:53:00
1:53 PM,78.1,48.9,36,29.94,10.0,Variable,5.8,-,N/A,,Clear,0,2013-05-01 20:53:00
2:53 PM,79.0,54.0,42,29.93,10.0,WNW,11.5,-,N/A,,Clear,300,2013-05-01 21:53:00
3:53 PM,75.9,54.0,46,29.94,10.0,WNW,10.4,-,N/A,,Clear,290,2013-05-01 22:53:00
4:53 PM,73.9,54.0,50,29.94,10.0,NW,10.4,-,N/A,,Clear,310,2013-05-01 23:53:00
5:53 PM,71.1,54.0,55,29.95,10.0,West,8.1,-,N/A,,Clear,270,2013-05-02 00:53:00
6:53 PM,66.0,53.1,63,29.98,10.0,WNW,9.2,-,N/A,,Clear,300,2013-05-02 01:53:00
7:53 PM,59.0,52.0,78,30.01,10.0,West,6.9,-,N/A,,Clear,280,2013-05-02 02:53:00
8:53 PM,55.9,51.1,84,30.04,10.0,WNW,3.5,-,N/A,,Clear,290,2013-05-02 03:53:00
9:53 PM,52.0,48.9,89,30.07,10.0,West,3.5,-,N/A,,Clear,270,2013-05-02 04:53:00
10:53 PM,51.1,48.9,92,30.08,10.0,West,4.6,-,N/A,,Clear,260,2013-05-02 05:53:00
11:53 PM,50.0,48.9,96,30.08,7.0,West,4.6,-,N/A,,Clear,260,2013-05-02 06:53:00